• Join FlightAware (Why Join?)
  • Login
  • US Flag GB Flag 
21:08 EDT


 

Airport Tracker/Info


-or-


 

Live Flight TrackerFlight Track Log ✈ N27XP ✈ 29-Sep-2013 ✈ KSOP - KGSP

Flight Track Log - Related Links

Times and Time Zones

All times are in EDT time to prevent confusion due to time zone crossing. See the N27XP flight status page for this flight to view local times or setup timezone preferences in your user account.

Time Position Orientation Groundspeed Altitude Reporting Facility
EDT Latitude Longitude Course Direction KTS MPH feet Rate Location/Type
06:46 35.2817 -79.5281 270° West 277 319 7,400  Level Washington Center
06:47 35.2728 -79.6117 263° West 299 344 9,500 2,040 Climbing Washington Center
06:49 35.2483 -79.8528 263° West 311 358 14,100 1,800 Climbing Atlanta Center
06:50 35.1833 -79.8951 270° West  Level FlightAware Approximate
06:50 35.2356 -79.9703 262° West 336 387 15,500  Level Atlanta Center
06:51 35.1833 -79.9985 270° West  Level FlightAware Approximate
06:51 35.2233 -80.1006 263° West 376 433 15,900  Level Atlanta Center
06:52 35.2086 -80.2333 262° West 397 457 16,000  Climbing Atlanta Center
06:53 35.1981 -80.3661 264° West 397 457 16,000  Level Atlanta Center
06:54 35.1831 -80.4989 262° West 397 457 16,000  Level Atlanta Center
06:54 35.1789 -80.5728 266° West 397 457 16,000  Level Atlanta Center
06:55 35.1686 -80.6444 260° West 402 463 16,000  Level Atlanta Center
06:55 35.1639 -80.7081 265° West 397 457 16,000  Level Atlanta Center
06:56 35.1556 -80.7819 262° West 402 463 16,000  Level Atlanta Center
06:56 35.1508 -80.8406 264° West 395 455 16,000  Level Atlanta Center
06:57 35.1422 -80.9147 262° West 402 463 16,000  Level Atlanta Center
06:57 35.1356 -80.9733 262° West 397 457 16,000  Level Atlanta Center
06:58 35.1289 -81.0472 264° West 402 463 16,000  Level Atlanta Center
06:58 35.1242 -81.1083 265° West 397 457 16,000  Level Atlanta Center
06:59 35.1133 -81.1797 260° West 402 463 16,000 -600 Level Atlanta Center
07:00 35.0997 -81.3122 263° West 402 463 15,100 -1,260 Descending Atlanta Center
07:01 35.0858 -81.4422 263° West 402 463 13,500 -1,500 Descending Atlanta Center
07:02 35.0756 -81.5567 264° West 391 450 12,200 -1,260 Descending Atlanta Center
07:03 35.0633 -81.6789 263° West 377 434 11,000 -720 Descending Atlanta Center
07:04 35.0508 -81.7933 262° West 359 413 10,800 -1,080 Descending Atlanta Center
07:05 35.0258 -81.9006 254° West 336 387 8,900 -1,920 Descending Atlanta Center
07:06 34.9664 -81.9681 223° Southwest 302 348 7,000 -1,380 Descending Atlanta Center
07:07 34.9089 -82.0303 222° Southwest 269 310 6,200 -1,260 Descending Atlanta Center
07:08 34.8617 -82.0794 221° Southwest 249 287 4,500 -1,500 Descending Atlanta Center
07:09 34.8189 -82.1361 227° Southwest 238 274 3,200 -1,320 Descending Atlanta Center
07:11 34.8833 -82.2167 253° West  Level FlightAware Approximate
07:18 34.8957 -82.2189 253° West  Level Estimated
07:19 34.8957 -82.2189 253° West  Level Estimated
07:20 34.8957 -82.2189 253° West  Level Estimated